Newburgh, NY

5:41 AM EDT on June 28, 2017 (GMT -0400)
Stewart International

Weather History for KSWF - October, 2011

Change the Weather History Date:

Thursday, October 6, 2011

  Actual Average Record
Temperature  
Mean Temperature 54 °F -  
Max Temperature 66 °F 63 °F 86 °F (2007)
Min Temperature 41 °F 42 °F 22 °F (1984)
Degree Days  
Heating Degree Days 12    
Growing Degree Days 4 (Base 50)    
Moisture  
Dew Point 39 °F    
Average Humidity 65    
Maximum Humidity 87    
Minimum Humidity 28    
Precipitation  
Precipitation 0.00 in - - ()
Sea Level Pressure  
Sea Level Pressure 30.33 in    
Wind  
Wind Speed 3 mph (West)    
Max Wind Speed 7 mph    
Max Gust Speed -    
Visibility 15 miles    
Events      
Averages and records for this station are not official NWS values.
T = Trace of Precipitation, MM = Missing Value Source: NWS Daily Summary

Daily Weather History Graph

Daily Weather History Graph

Search for Another Location

Airport or City:

Trip Planner

Search our weather history database for the weather conditions in past years. The results will help you decide how hot, cold, wet, or windy it might be!

Date:

Astronomy

Oct. 06, 2011 Rise Set
Actual Time 6:58 AM EDT 6:30 PM EDT
Civil Twilight 6:30 AM EDT 6:57 PM EDT
Nautical Twilight 5:58 AM EDT 7:29 PM EDT
Astronomical Twilight 5:26 AM EDT 8:02 PM EDT
Moon 3:45 PM EDT (10/6) 1:40 AM EDT (10/6)
Length of Visible Light 12h 27m
Length of Day
11h 32m
Waxing Gibbous, 75% of the Moon is Illuminated
Oct 6
Waxing Gibbous
Oct 11
Full
Oct 19
Last Quarter
Oct 26
New
Nov 2
First Quarter

Hourly Weather History & Observations

Time (EDT) Temp. Windchill Dew Point Humidity Pressure Visibility Wind Dir Wind Speed Gust Speed Precip Events Conditions
12:45 AM 44.6 °F - 39.2 °F 81% 30.32 in 10.0 mi Calm Calm - N/A   Clear
1:45 AM 42.8 °F - 37.4 °F 81% 30.34 in 10.0 mi Calm Calm - N/A   Clear
2:45 AM 42.8 °F - 37.4 °F 81% 30.33 in 10.0 mi Calm Calm - N/A   Clear
3:45 AM 42.8 °F - 37.4 °F 81% 30.34 in 10.0 mi Calm Calm - N/A   Clear
4:45 AM 41.0 °F 37.1 °F 37.4 °F 87% 30.34 in 10.0 mi West 5.8 mph - N/A   Clear
7:45 AM 41.0 °F 36.4 °F 37.4 °F 87% 30.36 in 20.0 mi West 6.9 mph - N/A   Clear
8:45 AM 44.6 °F 40.7 °F 39.2 °F 81% 30.37 in 20.0 mi West 6.9 mph - N/A   Clear
9:45 AM 50.0 °F - 39.2 °F 66% 30.37 in 20.0 mi West 6.9 mph - N/A   Clear
10:45 AM 53.6 °F - 39.2 °F 58% 30.37 in 20.0 mi West 6.9 mph - N/A   Clear
11:45 AM 57.2 °F - 35.6 °F 44% 30.37 in 20.0 mi West 6.9 mph - N/A   Clear
12:50 PM 60.8 °F - 35.6 °F 39% 30.34 in 20.0 mi WNW 6.9 mph - N/A   Clear
1:50 PM 64.4 °F - 33.8 °F 32% 30.32 in 20.0 mi NW 6.9 mph - N/A   Clear
2:50 PM 66.2 °F - 33.8 °F 30% 30.30 in 20.0 mi Calm Calm - N/A   Clear
4:45 PM 66.2 °F - 32.0 °F 28% 30.28 in 20.0 mi Variable 4.6 mph - N/A   Clear
5:45 PM 64.4 °F - 35.6 °F 34% 30.28 in 20.0 mi Variable 5.8 mph - N/A   Clear
6:45 PM 59.0 °F - 42.8 °F 55% 30.30 in 10.0 mi Variable 4.6 mph - N/A   Clear
7:45 PM 51.8 °F - 44.6 °F 76% 30.32 in 10.0 mi Calm Calm - N/A   Clear
8:45 PM 50.0 °F - 44.6 °F 82% 30.34 in 10.0 mi Calm Calm - N/A   Clear
9:45 PM 48.2 °F - 44.6 °F 87% 30.34 in 10.0 mi Calm Calm - N/A   Clear
10:45 PM 48.2 °F - 41.0 °F 76% 30.34 in 10.0 mi WNW 5.8 mph - N/A   Clear
11:45 PM 46.4 °F 42.9 °F 42.8 °F 87% 30.36 in 10.0 mi East 6.9 mph - N/A   Clear